DW0156 Weather Reports


Display with metric or nautical units.
time (UTC)temp
F
wind
direction
speed
MPH
gust
MPH
rain 1hr
in
rain 24hr
in
rain mn
in
humidity
%
barometer
mb
20260903182414 53 263 1.0 4.0 0.00 0.00 0.00 84 1017.4
20260903181908 53 263 1.0 4.0 0.00 0.00 0.00 83 1017.4
20260903181402 53 263 0.0 2.0 0.00 0.00 0.00 83 1017.9
20260903180844 53 263 0.0 0.0 0.00 0.00 0.00 83 1017.9
20260903180348 53 263 0.0 0.0 0.00 0.00 0.00 82 1017.9
20260903175841 54 263 0.0 0.0 0.00 0.00 0.00 82 1017.9
20260903175335 54 263 0.0 4.0 0.00 0.00 0.00 82 1017.9
20260903174832 54 263 1.0 5.0 0.00 0.00 0.00 82 1017.9
20260903174329 54 263 1.0 5.0 0.00 0.00 0.00 82 1018.1
20260903173826 54 263 1.0 5.0 0.00 0.00 0.00 82 1018.1
20260903173334 54 263 1.0 5.0 0.00 0.00 0.00 82 1018.1
20260903172826 54 263 1.0 4.0 0.00 0.00 0.00 81 1018.6
20260903172309 54 263 2.0 4.0 0.00 0.00 0.00 81 1018.6
20260903171812 54 263 2.0 4.0 0.00 0.00 0.00 81 1018.6
20260903171304 54 263 1.0 4.0 0.00 0.00 0.00 80 1018.4
20260903170744 54 263 1.0 2.0 0.00 0.00 0.00 79 1018.4
20260903170227 54 263 0.0 2.0 0.00 0.00 0.00 79 1018.4
20260903165042 54 263 0.0 1.0 0.00 0.00 0.00 78 1018.5
20260903164533 54 263 0.0 0.0 0.00 0.00 0.00 78 1018.5
20260903164043 54 263 0.0 0.0 0.00 0.00 0.00 78 1019.0
20260903163542 54 263 0.0 0.0 0.00 0.00 0.00 78 1019.0
20260903163046 54 263 0.0 0.0 0.00 0.00 0.00 78 1019.0
20260903162531 54 263 0.0 0.0 0.00 0.00 0.00 78 1018.9
20260903162013 54 263 0.0 0.0 0.00 0.00 0.00 78 1018.9
20260903161500 54 263 0.0 0.0 0.00 0.00 0.00 78 1018.9
20260903160940 54 263 1.0 3.0 0.00 0.00 0.00 78 1018.8
20260903160433 54 263 1.0 3.0 0.00 0.00 0.00 78 1018.8
20260903155310 53 263 0.0 2.0 0.00 0.00 0.00 78 1019.1
20260903154138 53 263 0.0 0.0 0.00 0.00 0.00 78 1019.3
20260903153635 53 263 0.0 0.0 0.00 0.00 0.00 78 1019.3
20260903153119 53 263 0.0 0.0 0.00 0.00 0.00 78 1019.3
20260903152616 54 263 0.0 0.0 0.00 0.00 0.00 77 1019.5
20260903152117 54 263 0.0 0.0 0.00 0.00 0.00 77 1019.5
20260903151618 54 263 0.0 0.0 0.00 0.00 0.00 77 1019.5
20260903145810 54 263 0.0 0.0 0.00 0.00 0.00 77 1019.9
20260903145305 54 263 0.0 0.0 0.00 0.00 0.00 77 1019.9
20260903144745 54 263 0.0 0.0 0.00 0.00 0.00 77 1019.9
20260903143643 54 263 0.0 0.0 0.00 0.00 0.00 77 1020.1
20260903142505 54 263 0.0 0.0 0.00 0.00 0.00 77 1020.3
20260903142010 54 263 0.0 0.0 0.00 0.00 0.00 76 1020.3
20260903140231 55 263 0.0 0.0 0.00 0.00 0.00 75 1020.4
20260903135728 55 263 0.0 0.0 0.00 0.00 0.00 75 1020.6
20260903135224 55 263 0.0 0.0 0.00 0.00 0.00 75 1020.6
20260903134734 55 263 0.0 0.0 0.00 0.00 0.00 75 1020.6
20260903134243 55 263 0.0 0.0 0.00 0.00 0.00 75 1020.7
20260903133732 55 263 0.0 0.0 0.00 0.00 0.00 74 1020.7
20260903133239 55 263 0.0 0.0 0.00 0.00 0.00 74 1020.7
20260903132742 56 263 0.0 0.0 0.00 0.00 0.00 74 1020.7
20260903132238 56 263 0.0 0.0 0.00 0.00 0.00 74 1020.7
20260903131743 56 263 0.0 0.0 0.00 0.00 0.00 74 1020.7
20260903130630 56 263 0.0 0.0 0.00 0.00 0.00 74 1020.8
20260903125516 56 263 0.0 0.0 0.00 0.00 0.00 74 1020.9
20260903125019 56 263 0.0 1.0 0.00 0.00 0.00 74 1020.9
20260903124526 56 263 0.0 0.0 0.00 0.00 0.00 74 1020.9
20260903123406 56 263 1.0 4.0 0.00 0.00 0.00 74 1020.9
20260903122249 57 263 0.0 3.0 0.00 0.00 0.00 74 1021.2
20260903121749 57 263 0.0 0.0 0.00 0.00 0.00 74 1021.2
20260903121229 57 263 0.0 0.0 0.00 0.00 0.00 74 1021.2
20260903120737 57 263 0.0 0.0 0.00 0.00 0.00 74 1021.2
20260903120243 57 263 0.0 0.0 0.00 0.00 0.00 74 1021.2
20260903115727 57 263 0.0 1.0 0.00 0.00 0.00 73 1021.2
20260903115219 57 263 0.0 0.0 0.00 0.00 0.00 73 1021.2
20260903114722 57 263 0.0 0.0 0.00 0.00 0.00 73 1021.2
20260903112954 57 263 0.0 0.0 0.00 0.00 0.00 73 1021.2
20260903111851 57 263 0.0 0.0 0.00 0.00 0.00 72 1021.1
20260903111340 57 263 0.0 0.0 0.00 0.00 0.00 72 1021.0
20260903110849 57 263 0.0 0.0 0.00 0.00 0.00 72 1021.0
20260903110342 57 263 0.0 0.0 0.00 0.00 0.00 72 1021.0
20260903105845 57 263 0.0 0.0 0.00 0.00 0.00 72 1020.9
20260903104735 57 263 0.0 0.0 0.00 0.00 0.00 72 1020.9
20260903104244 57 263 0.0 2.0 0.00 0.00 0.00 71 1020.7
20260903103123 57 263 0.0 0.0 0.00 0.00 0.00 71 1020.7
20260903102610 57 263 0.0 0.0 0.00 0.00 0.00 71 1020.6
20260903102051 58 263 0.0 0.0 0.00 0.00 0.00 70 1020.6
20260903101557 58 263 0.0 0.0 0.00 0.00 0.00 70 1020.6
20260903101050 58 263 0.0 0.0 0.00 0.00 0.00 69 1020.4
20260903100540 58 263 0.0 0.0 0.00 0.00 0.00 69 1020.4
20260903100044 58 263 0.0 1.0 0.00 0.00 0.00 69 1020.4
20260903094914 58 263 0.0 4.0 0.00 0.00 0.00 68 1020.2
20260903094354 58 263 1.0 4.0 0.00 0.00 0.00 68 1020.3
20260903093838 58 263 1.0 5.0 0.00 0.00 0.00 68 1020.3
20260903093327 58 263 2.0 5.0 0.00 0.00 0.00 67 1020.3
20260903092822 58 263 2.0 6.0 0.00 0.00 0.00 67 1020.2
20260903092314 58 263 2.0 6.0 0.00 0.00 0.00 67 1020.2
20260903091202 58 263 2.0 6.0 0.00 0.00 0.00 66 1019.9
20260903090706 59 263 2.0 4.0 0.00 0.00 0.00 67 1019.9
20260903090147 59 263 1.0 4.0 0.00 0.00 0.00 67 1019.9
20260903085016 59 263 1.0 5.0 0.00 0.00 0.00 67 1020.0
20260903084500 59 263 2.0 5.0 0.00 0.00 0.00 67 1020.0
20260903083953 59 263 2.0 5.0 0.00 0.00 0.00 67 1019.7
20260903083451 59 263 1.0 5.0 0.00 0.00 0.00 66 1019.7
20260903082932 59 263 2.0 5.0 0.00 0.00 0.00 66 1019.7
20260903081808 59 263 2.0 5.0 0.00 0.00 0.00 65 1019.6
20260903081305 59 263 2.0 5.0 0.00 0.00 0.00 65 1019.5
20260903080753 59 263 2.0 5.0 0.00 0.00 0.00 65 1019.5
20260903080251 60 263 2.0 4.0 0.00 0.00 0.00 64 1019.5
20260903075756 60 263 2.0 5.0 0.00 0.00 0.00 64 1019.4
20260903075306 60 263 2.0 5.0 0.00 0.00 0.00 63 1019.4
20260903074803 60 263 3.0 9.0 0.00 0.00 0.00 63 1019.4
20260903074251 60 263 3.0 9.0 0.00 0.00 0.00 63 1019.2
20260903073754 60 263 3.0 9.0 0.00 0.00 0.00 62 1019.2
20260903073236 60 263 3.0 9.0 0.00 0.00 0.00 62 1019.2
20260903072726 60 263 2.0 6.0 0.00 0.00 0.00 62 1019.1
20260903071624 60 263 3.0 9.0 0.00 0.00 0.00 62 1019.1
20260903071116 60 263 3.0 9.0 0.00 0.00 0.00 62 1019.2
20260903070623 60 263 4.0 9.0 0.00 0.00 0.00 61 1019.2
20260903070113 60 263 4.0 12.0 0.00 0.00 0.00 61 1019.2
20260903065622 60 263 3.0 12.0 0.00 0.00 0.00 62 1019.1
20260903064521 60 263 5.0 12.0 0.00 0.00 0.00 62 1019.1
20260903063411 60 263 4.0 12.0 0.00 0.00 0.00 62 1019.1
20260903062226 61 263 4.0 12.0 0.00 0.00 0.00 63 1019.1
20260903061058 61 263 4.0 11.0 0.00 0.00 0.00 65 1019.1
20260903060601 61 263 4.0 11.0 0.00 0.00 0.00 64 1019.1
20260903060056 61 263 3.0 7.0 0.00 0.00 0.00 64 1019.1
20260903055554 61 263 3.0 7.0 0.00 0.00 0.00 64 1019.1
20260903055100 61 263 3.0 10.0 0.00 0.00 0.00 64 1019.1
20260903054541 61 263 3.0 10.0 0.00 0.00 0.00 64 1019.1
20260903054030 61 263 3.0 10.0 0.00 0.00 0.00 64 1019.0
20260903053533 61 263 4.0 10.0 0.00 0.00 0.00 64 1019.0
20260903052403 61 263 4.0 10.0 0.00 0.00 0.00 68 1019.0
20260903051901 61 263 3.0 9.0 0.00 0.00 0.00 68 1019.0
20260903051350 61 263 3.0 11.0 0.00 0.00 0.00 69 1018.7
20260903050854 61 263 4.0 11.0 0.00 0.00 0.00 69 1018.7
20260903045712 61 263 4.0 13.0 0.00 0.00 0.00 69 1018.6
20260903045152 61 263 6.0 13.0 0.00 0.00 0.00 68 1018.6
20260903044657 61 263 5.0 12.0 0.00 0.00 0.00 67 1018.6
20260903044203 62 263 5.0 11.0 0.00 0.00 0.00 69 1018.5
20260903043709 61 263 5.0 11.0 0.00 0.00 0.00 68 1018.5
20260903043158 61 263 4.0 12.0 0.00 0.00 0.00 68 1018.5
20260903042041 61 263 5.0 12.0 0.00 0.00 0.00 71 1018.5
20260903041546 61 263 4.0 12.0 0.00 0.00 0.00 71 1018.5
20260903041034 61 263 4.0 9.0 0.00 0.00 0.00 73 1018.5
20260903040543 62 263 4.0 9.0 0.00 0.00 0.00 73 1018.5
20260903040036 61 263 4.0 10.0 0.00 0.00 0.00 74 1018.5
20260903035521 61 263 4.0 10.0 0.00 0.00 0.00 73 1018.5
20260903035008 61 263 5.0 12.0 0.00 0.00 0.00 73 1018.5
20260903034452 61 263 6.0 12.0 0.00 0.00 0.00 73 1018.5
20260903033948 61 263 6.0 13.0 0.00 0.00 0.00 72 1018.5
20260903033448 62 263 4.0 13.0 0.00 0.00 0.00 72 1018.5
20260903032944 62 263 5.0 13.0 0.00 0.00 0.00 72 1018.5
20260903032429 62 263 4.0 13.0 0.00 0.00 0.00 73 1018.5
20260903031912 62 263 3.0 9.0 0.00 0.00 0.00 73 1018.5
20260903025529 61 263 4.0 10.0 0.00 0.00 0.00 78 1018.5
20260903025036 61 263 3.0 9.0 0.00 0.00 0.00 78 1018.5
20260903023910 60 263 4.0 9.0 0.00 0.00 0.00 80 1018.6
20260903023349 60 263 4.0 9.0 0.00 0.00 0.00 81 1018.6
20260903022841 60 263 4.0 9.0 0.00 0.00 0.00 81 1018.6
20260903022351 60 263 4.0 9.0 0.00 0.00 0.00 81 1018.6
20260903021847 60 263 4.0 9.0 0.00 0.00 0.00 83 1018.6
20260903021354 60 263 4.0 9.0 0.00 0.00 0.00 83 1018.6
20260903020246 60 263 4.0 9.0 0.00 0.00 0.00 86 1018.6
20260903015727 59 263 3.0 9.0 0.00 0.00 0.00 87 1018.5
20260903014620 59 263 4.0 10.0 0.00 0.00 0.00 88 1018.5
20260903013449 58 263 4.0 12.0 0.00 0.00 0.00 89 1018.5
20260903012952 58 263 5.0 12.0 0.00 0.00 0.00 89 1018.5
20260903011829 58 263 5.0 12.0 0.00 0.00 0.00 88 1018.4
20260903011331 58 263 4.0 13.0 0.00 0.00 0.00 89 1018.4
20260903010827 58 263 6.0 13.0 0.00 0.00 0.00 88 1018.4
20260903010324 58 263 6.0 13.0 0.00 0.00 0.00 87 1018.4
20260903005811 58 263 6.0 13.0 0.00 0.00 0.00 87 1018.2
20260903004638 59 263 6.0 15.0 0.00 0.00 0.00 85 1018.2
20260903004145 59 263 6.0 15.0 0.00 0.00 0.00 84 1018.1
20260903003643 59 263 6.0 15.0 0.00 0.00 0.00 84 1018.1
20260903003132 59 263 6.0 14.0 0.00 0.00 0.00 84 1018.1
20260903002003 59 263 5.0 14.0 0.00 0.00 0.00 84 1018.1
20260903001441 59 263 5.0 14.0 0.00 0.00 0.00 84 1018.1
20260903000947 59 263 5.0 13.0 0.00 0.00 0.00 85 1018.0
20260903000436 59 263 5.0 11.0 0.00 0.00 0.00 85 1018.0
20260902235940 59 263 5.0 17.0 0.00 0.00 0.00 85 1018.0
20260902235439 59 263 6.0 17.0 0.00 0.00 0.00 85 1018.0
20260902234932 58 263 6.0 17.0 0.00 0.00 0.00 85 1018.0
20260902233815 59 263 3.0 13.0 0.00 0.00 0.00 85 1017.9
20260902233325 58 263 3.0 13.0 0.00 0.00 0.00 86 1017.9
20260902232817 58 263 3.0 13.0 0.00 0.00 0.00 86 1018.0
20260902232259 58 263 4.0 13.0 0.00 0.00 0.00 86 1018.0
20260902231745 58 263 5.0 12.0 0.00 0.00 0.00 86 1018.0
20260902231235 58 263 5.0 12.0 0.00 0.00 0.00 86 1017.6
20260902230731 58 263 5.0 12.0 0.00 0.00 0.00 86 1017.6
20260902230216 58 263 4.0 12.0 0.00 0.00 0.00 86 1017.6
20260902225715 58 263 3.0 12.0 0.00 0.00 0.00 87 1017.5
20260902225219 58 263 3.0 12.0 0.00 0.00 0.00 87 1017.5
20260902224702 58 263 3.0 11.0 0.00 0.00 0.00 87 1017.5
20260902224147 57 263 2.0 10.0 0.00 0.00 0.00 87 1017.1
20260902223632 57 263 3.0 9.0 0.00 0.00 0.00 88 1017.1
20260902222449 57 263 1.0 6.0 0.00 0.00 0.00 88 1017.0
20260902221935 57 263 2.0 8.0 0.00 0.00 0.00 88 1017.0
20260902221431 56 263 1.0 8.0 0.00 0.00 0.00 88 1017.0
20260902220936 56 263 1.0 10.0 0.00 0.00 0.00 87 1016.8
20260902220438 56 263 2.0 10.0 0.00 0.00 0.00 87 1016.8
20260902215943 56 263 2.0 10.0 0.00 0.00 0.00 87 1016.8
20260902215451 56 263 2.0 10.0 0.00 0.00 0.00 87 1016.6
20260902214952 56 263 2.0 9.0 0.00 0.00 0.00 87 1016.6
20260902214440 56 263 2.0 9.0 0.00 0.00 0.00 87 1016.6
20260902213927 56 263 2.0 7.0 0.00 0.00 0.00 87 1016.5
20260902213436 56 263 2.0 9.0 0.00 0.00 0.00 87 1016.5
20260902212945 56 263 2.0 9.0 0.00 0.00 0.00 87 1016.5
20260902212444 56 263 3.0 9.0 0.00 0.00 0.00 87 1016.4
20260902211939 56 263 2.0 9.0 0.00 0.00 0.00 87 1016.4
20260902211448 56 263 2.0 5.0 0.00 0.00 0.00 86 1016.4
20260902210937 56 263 1.0 8.0 0.00 0.00 0.00 86 1016.1
20260902210439 56 263 1.0 8.0 0.00 0.00 0.00 86 1016.1
20260902205938 56 263 2.0 9.0 0.00 0.00 0.00 86 1016.1
20260902205430 56 263 2.0 9.0 0.00 0.00 0.00 86 1016.0
20260902204915 56 263 2.0 9.0 0.00 0.00 0.00 86 1016.0
20260902204411 56 263 1.0 9.0 0.00 0.00 0.00 85 1016.0
20260902203916 56 263 1.0 6.0 0.00 0.00 0.00 85 1015.9
20260902202747 56 263 1.0 9.0 0.00 0.00 0.00 85 1015.8
20260902202238 56 263 2.0 10.0 0.00 0.00 0.00 85 1015.8
20260902201748 56 263 2.0 10.0 0.00 0.00 0.00 85 1015.8
20260902195950 56 263 3.0 11.0 0.00 0.00 0.00 84 1015.6
20260902195432 56 263 3.0 11.0 0.00 0.00 0.00 84 1015.4
20260902194920 56 263 3.0 11.0 0.00 0.00 0.00 84 1015.4
20260902194402 56 263 3.0 11.0 0.00 0.00 0.00 84 1015.4
20260902193300 56 263 3.0 10.0 0.00 0.00 0.00 84 1015.4
20260902192142 56 263 3.0 10.0 0.00 0.00 0.00 83 1015.3
20260902191629 56 263 3.0 13.0 0.00 0.00 0.00 83 1015.3
20260902190506 56 263 3.0 13.0 0.00 0.00 0.00 83 1015.0
20260902185956 56 263 4.0 13.0 0.00 0.00 0.00 83 1015.0
20260902185446 56 263 3.0 13.0 0.00 0.00 0.00 82 1014.9
20260902184949 56 263 2.0 13.0 0.00 0.00 0.00 82 1014.9
20260902184445 56 263 2.0 13.0 0.00 0.00 0.00 82 1014.9
20260902183937 56 263 3.0 13.0 0.00 0.00 0.00 82 1014.9
20260902183430 56 263 3.0 9.0 0.00 0.00 0.00 81 1014.9
20260902182918 56 263 2.0 8.0 0.00 0.00 0.00 81 1014.9